Cleveland Burke, OH

11:00 AM EDT on May 27, 2018 (GMT -0400)
Burke Lakefront

Weather History for KBKL - February, 2013

Change the Weather History Date:

Thursday, February 14, 2013

  Actual Average Record
Temperature  
Mean Temperature 34 °F -  
Max Temperature 39 °F 37 °F 53 °F (2005)
Min Temperature 28 °F 25 °F 1 °F (2015)
Degree Days  
Heating Degree Days 32    
Moisture  
Dew Point 29 °F    
Average Humidity 78    
Maximum Humidity 87    
Minimum Humidity 67    
Precipitation  
Precipitation 0.00 in - - ()
Sea Level Pressure  
Sea Level Pressure 29.83 in    
Wind  
Wind Speed 12 mph (South)    
Max Wind Speed 24 mph    
Max Gust Speed 34 mph    
Visibility 8 miles    
Events      
Averages and records for this station are not official NWS values.
T = Trace of Precipitation, MM = Missing Value Source: NWS Daily Summary

Daily Weather History Graph

Daily Weather History Graph

Search for Another Location

Airport or City:

Astronomy

Feb. 14, 2013 Rise Set
Actual Time 7:22 AM EST 5:59 PM EST
Civil Twilight 6:54 AM EST 6:27 PM EST
Nautical Twilight 6:21 AM EST 7:00 PM EST
Astronomical Twilight 5:49 AM EST 7:32 PM EST
Moon 9:19 AM EST (2/14) 11:05 PM EST (2/14)
Length of Visible Light 11h 33m
Length of Day
10h 36m
Waxing Crescent, 21% of the Moon is Illuminated
Feb 14
Waxing Crescent
Feb 17
First Quarter
Feb 25
Full
Mar 4
Last Quarter
Mar 11
New

Hourly Weather History & Observations

Time (EST) Temp. Windchill Dew Point Humidity Pressure Visibility Wind Dir Wind Speed Gust Speed Precip Events Conditions
12:53 AM 28.9 °F 21.9 °F 24.1 °F 82% 29.86 in 6.0 mi South 6.9 mph - N/A   Haze
1:53 AM 28.0 °F 20.0 °F 23.0 °F 81% 29.85 in 6.0 mi SSE 8.1 mph - N/A   Haze
2:53 AM 28.0 °F 18.1 °F 23.0 °F 81% 29.85 in 6.0 mi SSE 11.5 mph - N/A   Haze
3:53 AM 28.9 °F 19.2 °F 23.0 °F 78% 29.84 in 7.0 mi SSE 11.5 mph - N/A   Clear
4:53 AM 30.0 °F 22.4 °F 24.1 °F 79% 29.84 in 7.0 mi South 8.1 mph - N/A   Overcast
5:53 AM 30.9 °F 22.2 °F 25.0 °F 79% 29.84 in 7.0 mi SSE 10.4 mph - N/A   Overcast
6:53 AM 32.0 °F 23.6 °F 26.1 °F 79% 29.85 in 7.0 mi SSE 10.4 mph 19.6 mph N/A   Overcast
7:53 AM 32.0 °F 22.1 °F 26.1 °F 79% 29.85 in 5.0 mi SSE 13.8 mph - N/A   Haze
8:53 AM 33.1 °F 24.9 °F 27.0 °F 78% 29.87 in 5.0 mi SSE 10.4 mph - N/A   Haze
9:53 AM 35.1 °F 26.9 °F 28.9 °F 78% 29.86 in 5.0 mi South 11.5 mph - N/A   Haze
10:53 AM 37.0 °F 27.7 °F 30.0 °F 76% 29.84 in 6.0 mi South 16.1 mph 23.0 mph N/A   Haze
11:53 AM 37.9 °F 29.2 °F 30.0 °F 73% 29.84 in 7.0 mi South 15.0 mph 24.2 mph N/A   Mostly Cloudy
12:53 PM 39.0 °F 29.6 °F 30.9 °F 73% 29.83 in 7.0 mi South 18.4 mph 26.5 mph N/A   Overcast
1:53 PM 37.9 °F 29.6 °F 33.1 °F 83% 29.81 in 6.0 mi South 13.8 mph 21.9 mph 0.00 in   Haze
2:53 PM 39.0 °F 29.3 °F 32.0 °F 76% 29.77 in 7.0 mi South 19.6 mph 26.5 mph N/A   Mostly Cloudy
3:53 PM 39.0 °F 28.5 °F 32.0 °F 76% 29.79 in 8.0 mi South 23.0 mph 34.5 mph N/A   Overcast
4:41 PM 37.4 °F 28.9 °F 33.8 °F 87% 29.76 in 7.0 mi South 13.8 mph 28.8 mph 0.00 in   Overcast
4:53 PM 37.9 °F 28.9 °F 33.1 °F 83% 29.79 in 8.0 mi South 16.1 mph 23.0 mph 0.00 in   Overcast
5:13 PM 37.4 °F 27.8 °F 33.8 °F 87% 29.79 in 8.0 mi South 17.3 mph 21.9 mph N/A   Overcast
5:45 PM 37.4 °F 27.2 °F 33.8 °F 87% 29.79 in 8.0 mi South 19.6 mph 27.6 mph N/A   Overcast
5:53 PM 37.9 °F 28.2 °F 32.0 °F 79% 29.80 in 9.0 mi South 18.4 mph 24.2 mph N/A   Mostly Cloudy
6:53 PM 39.0 °F 31.0 °F 33.1 °F 79% 29.80 in 10.0 mi South 13.8 mph 23.0 mph N/A   Overcast
7:46 PM 39.2 °F 31.2 °F 33.8 °F 81% 29.80 in 10.0 mi SSW 13.8 mph 29.9 mph N/A   Overcast
7:53 PM 39.9 °F 33.4 °F 33.1 °F 77% 29.82 in 10.0 mi SW 10.4 mph 21.9 mph N/A   Overcast
8:53 PM 37.0 °F 25.6 °F 28.9 °F 73% 29.84 in 10.0 mi West 24.2 mph 33.4 mph N/A   Overcast
9:53 PM 37.9 °F 28.2 °F 28.0 °F 68% 29.87 in 10.0 mi WSW 18.4 mph - N/A   Overcast
10:53 PM 37.0 °F 27.7 °F 28.0 °F 70% 29.87 in 10.0 mi WSW 16.1 mph 28.8 mph N/A   Overcast
11:53 PM 37.0 °F 27.0 °F 27.0 °F 67% 29.88 in 10.0 mi West 18.4 mph 27.6 mph N/A   Overcast